Find Starlink 34915

NORAD ID: 65187 Int'l Des: 2025-175 Owner: SPXS Country: US Constellation: starlink operational
LEOCIRCULARRETROGRADESSO

現在のビュー

3D地球を読み込み中...

About Starlink 34915

Starlink 34915 (NORAD 65187) is a starlink constellation satellite (v2 mini) launched Aug 14, 2025 by SPXS of US. It operates in LEO, CIRCULAR, RETROGRADE, SSO orbit with a mass of 575.00 kg.

次回通過

Passes for default location (London). Set your location on the main map for personalized predictions.

高度履歴

Loading altitude history...

軌道要素

1 65187U 25175P 26263.39181407 .00017671 00000-0 54822-3 0 9995
2 65187 97.2837 132.3357 0002076 90.8022 269.3459 15.33454499 62110
Epoch: Sep 20, 2026 • Age: 16 hours

現在のステータス

高度 476.9 km
遠地点 / 近地点 N/A
速度 7.63 km/s
衛星直下点 75.38°N, 82.89°E
打ち上げ日 Aug 14, 2025
運用期間 1.1 years
タイプ internet

技術仕様

分類 Payload
質量 575.00 kg
乾燥質量 530.00 kg
長さ 0.30 m
スパン 29.00 m
形状 ? Box + pan
製造者 SPXS
バスタイプ Starlink V2MO
フェーズステータス In Orbit
所有者/国 SPXS/US

Most Searched